sat.trackr.live / text

‹ back to catalog

TEVEL2-5

NORAD 63214 · 2025-052E

PAYLOAD ACTIVE UNKNOWN

§ Identity

Operator
Country
ISRA
Launch date
2025-03-15
Launch site
AFWTR
Launch vehicle
Mass (kg)
RCS (m²)

Purposes: comms

External: N2YO · Heavens-Above · Gunter

§ Orbital elements

Epoch: 2026-05-24T15:42:01.454400Z

Period
93.90 min
Inclination
97.3929°
Eccentricity
0.0003038
Mean motion
15.33501284 rev/d
Perigee alt
463.3 km
Apogee alt
467.5 km
Semi-major
6,843.5 km
B*
4.9264e-4
RAAN
40.9735°
Arg perigee
147.5060°
Mean anomaly
212.6370°
Rev number
6,650

§ Raw data

TEVEL2-51 63214U 25052E   26144.65418350  .00015891  00000+0  49264-3 0  99902 63214  97.3929  40.9735 0003038 147.5060 212.6370 15.33501284 66502

JSON: /api/v1/satellites/63214 · /tle

For live sub-satellite position, see the globe view (requires WebGL).

§ Visibility from observer

Set your observer location to see the next 7 days of passes ≥ 10°. The values pass through the URL so the page stays shareable.

No JS? Fill the form by hand. The geolocation button needs JavaScript.

§ Radio — SatNOGS DB

ModeDescriptionDownlinkUplink
BPSK Mode U - BPSK9k6 G3RUH - Beacon 436.400 MHz
FM Mode V/U - FM Transponder 436.400 MHz 145.970 MHz

2 transmitters · refreshed weekly from db.satnogs.org